P/2010 U2 ( Hill )

Japanese version
Home page
Updated on September 3, 2011

---------------------------------------------------------------------

* Profile

Discovery Date October 17, 2010
Magnitude 18.2 mag
Discoverer R. E. Hill (Catalina)

* Pictures

* Orbital Elements

Epoch 2010 Nov. 20.0 TT = JDT 2455520.5
T 2010 Nov.  9.30694 TT                                 MPC
q   2.5527544            (2000.0)            P               Q
n   0.11149974     Peri.   44.24027     +0.74873422     -0.66271341
a   4.2751708      Node   357.14981     +0.49864672     +0.57744044
e   0.4028883      Incl.   16.86087     +0.43674767     +0.47683696
P   8.84
From 250 observations 2010 Oct. 1-2011 Mar. 7, mean residual 0".5.

* Magnitudes Graph

        m1 = 12.7 + 5 log d + 10.0 log r

---------------------------------------------------------------------

The orbital elements are published on M.P.E.C. 2011-F02.
The magnitudes graphs are made with Comet for Windows.

---------------------------------------------------------------------

Copyright(C) Seiichi Yoshida (comet@aerith.net). All rights reserved.